Temperature
20 20 20 20 20 21 23 24 25 24 24 24 24 24 24 22 21 18 18 17 17 17 16 15 15 14 14 13 13 13 12 12 12 11 11 11 11 11 11 11 11 11 11 11 11 12 12 13 13
20 20 20 21 21 22 23 24 24 24 24 24 24 24 24 22 20 19 18 17 17 16 16 15 15 14 14 13 13 12 12 12 11 11 11 10 10 10 10 11 11 11 11 11 12 12 12 13 13
20 20 21 21 22 23 23 24 23 24 24 24 24 24 23 22 21 19 19 18 17 16 16 15 15 14 14 13 13 12 12 12 11 11 11 11 10 10 11 11 11 11 11 11 12 12 12 12 13
20 21 22 22 23 24 24 24 24 24 24 24 24 24 22 21 21 20 19 18 16 15 15 15 14 14 13 13 13 12 12 11 11 11 11 10 10 11 11 11 11 11 11 11 12 12 12 12 12
20 21 21 22 23 24 25 25 25 24 24 24 24 23 21 20 20 20 19 18 17 15 15 15 14 14 13 13 12 12 12 11 11 11 10 10 10 11 11 11 11 11 11 11 11 11 12 12 12
21 22 21 22 23 24 25 24 25 25 24 24 24 24 20 20 20 19 18 17 17 16 15 15 15 14 13 13 12 12 11 11 11 11 10 10 10 10 11 11 11 11 11 11 11 11 11 11 12
21 21 21 23 23 24 24 24 24 24 24 24 24 23 20 19 20 19 18 17 16 16 15 15 15 14 13 12 12 12 11 11 11 10 10 10 10 10 10 11 11 11 11 11 11 11 11 11 11
21 21 22 23 23 23 24 24 24 24 24 23 23 23 21 19 19 19 18 17 16 15 15 15 14 14 13 12 12 12 11 11 11 10 10 10 10 10 10 10 10 10 10 10 10 10 10 10 10
20 20 21 23 23 23 24 23 23 23 23 23 23 22 21 20 19 18 17 17 16 15 15 14 14 14 13 12 12 11 11 11 11 10 10 10 10 10 10 10 10 10 10 10 10 10 10 10 9
21 19 21 23 23 23 23 23 23 23 23 23 23 22 21 20 19 18 18 17 16 15 15 14 14 13 13 12 12 11 11 11 11 10 10 10 9 9 9 9 9 9 9 9 9 9 9 9 9
22 21 22 23 22 22 22 23 23 22 21 23 23 21 20 20 19 18 17 17 16 16 15 14 14 13 13 12 12 11 11 11 10 10 10 10 9 9 9 9 9 9 9 9 9 9 9 9 9
22 22 22 22 21 21 22 22 22 22 22 22 22 22 20 19 19 18 17 17 17 16 15 14 14 13 13 12 12 11 11 11 10 10 10 10 9 9 9 9 9 9 9 9 9 9 9 9 8
21 21 22 22 21 21 21 21 21 22 22 22 22 21 20 20 19 19 18 18 17 16 15 15 14 13 13 12 12 11 11 11 10 10 10 10 9 9 9 9 9 9 9 9 9 9 8 9 8
21 22 22 22 21 21 20 20 21 21 22 22 21 21 20 20 20 19 19 18 18 17 16 15 14 13 13 12 12 12 11 11 10 10 10 10 9 9 9 9 9 9 9 9 9 8 8 8 8
21 20 20 21 21 21 20 19 20 21 21 21 21 21 21 20 20 20 19 19 18 17 16 15 14 13 13 12 12 11 11 11 11 10 10 10 9 9 9 9 9 9 9 9 9 9 9 8 8
20 19 19 20 21 20 19 18 21 22 22 21 21 22 21 21 20 20 19 19 18 17 16 15 14 14 13 12 12 11 11 11 11 10 10 10 9 9 9 9 9 9 9 9 9 9 9 8 8
19 18 19 20 21 20 19 18 20 22 22 22 22 22 22 21 21 20 20 19 18 17 16 15 14 14 13 12 12 11 11 11 11 10 10 10 10 9 9 9 9 9 9 9 9 9 8 8 8
18 19 20 20 20 20 19 18 20 22 22 22 22 22 22 22 21 20 20 19 18 17 16 16 15 14 13 12 11 11 11 11 11 10 10 10 10 9 9 9 9 9 9 9 9 8 8 8 8
19 19 19 20 21 20 19 19 19 21 21 21 22 22 22 22 21 21 20 19 18 17 16 15 15 14 13 12 12 11 11 11 11 10 10 10 9 9 9 9 9 9 9 9 9 8 8 8 8
19 18 19 20 20 19 18 18 19 20 21 21 21 21 21 21 21 20 19 19 18 17 16 15 15 14 13 12 12 12 11 11 11 10 10 10 10 10 10 10 9 9 9 9 9 8 8 8 8
18 18 18 19 19 19 18 18 19 20 21 21 21 21 21 20 20 20 19 18 17 16 16 15 15 14 13 12 12 11 11 11 10 10 10 10 10 10 10 10 10 9 9 9 9 8 8 8 7
17 19 19 18 17 17 18 16 18 20 20 20 21 21 20 20 19 19 18 17 16 16 15 15 15 14 13 12 12 11 11 11 11 11 10 10 10 10 10 10 10 9 9 9 9 8 8 8 7
18 19 18 18 17 16 17 16 18 20 19 20 20 20 20 19 19 18 18 17 16 15 15 14 14 14 13 12 12 11 11 11 11 11 10 10 10 10 10 10 10 9 9 9 9 8 8 7 7
18 18 17 17 16 15 17 17 17 19 20 20 19 20 19 18 18 17 17 16 15 14 14 14 14 13 13 12 12 11 11 11 10 10 10 11 10 10 10 10 10 9 9 9 8 8 8 7 7
17 16 15 14 14 14 17 17 18 20 20 20 19 19 19 18 17 16 16 15 14 14 14 14 13 13 12 12 12 11 11 11 11 11 11 11 10 10 10 10 10 9 9 9 8 8 7 7 7
16 16 15 15 15 16 17 16 18 20 20 20 20 19 18 18 17 16 15 15 14 14 14 13 13 13 12 12 11 11 11 11 11 10 10 10 10 11 10 10 10 9 9 8 8 8 7 7 6
16 16 17 16 16 16 17 18 19 20 19 19 19 19 18 17 17 16 15 14 14 13 13 13 13 12 12 12 11 11 11 11 11 10 10 10 10 10 10 10 9 9 9 8 8 7 7 6 6
17 16 15 15 14 14 16 17 17 18 18 18 18 18 18 17 17 16 15 14 14 13 13 13 12 12 12 12 11 11 11 11 10 10 10 10 10 10 10 9 9 9 8 8 7 7 7 6 6
15 16 16 15 15 15 15 17 19 19 19 18 18 19 18 17 17 16 15 14 14 13 12 12 12 12 11 11 11 11 11 10 10 10 10 10 10 10 9 9 9 8 8 8 7 7 6 6 5
16 16 16 14 15 15 15 16 20 19 19 18 19 19 18 17 17 16 15 15 14 13 12 12 12 11 11 11 11 10 10 10 10 10 10 10 9 9 9 9 8 8 8 7 7 6 6 5 5
Wind_Speed
14 14 8 3 4 5 2 4 5 5 5 7 6 4 7 9 7 7 6 10 15 15 20 18 17 16 15 15 14 14 13 13 13 13 13 13 14 14 14 14 14 15 15 15 15 15 15 15 15
12 9 5 4 5 4 4 5 6 8 8 6 2 1 5 8 9 9 7 11 15 17 20 18 18 16 15 15 14 14 13 13 13 13 12 13 13 13 13 13 13 14 14 14 14 14 14 14 14
9 9 4 4 4 2 4 7 9 9 6 3 3 2 5 7 10 9 9 12 13 15 19 20 19 17 16 15 15 14 13 13 13 12 12 12 12 12 12 12 12 13 13 13 13 13 13 13 13
6 4 5 6 4 5 5 8 9 8 5 1 1 6 6 6 5 9 12 11 13 13 20 21 19 17 17 16 15 15 13 13 13 12 12 12 11 11 11 11 11 11 11 11 11 12 12 11 11
4 4 6 6 1 3 5 7 5 5 7 4 2 4 8 6 12 14 11 12 13 12 20 20 19 18 17 16 16 15 14 14 13 12 11 11 11 10 10 10 10 10 10 10 10 10 10 10 10
4 4 6 6 4 3 4 4 4 3 5 5 2 1 7 9 11 11 10 10 11 12 18 20 19 18 17 17 16 15 14 14 13 12 11 10 10 9 9 8 8 8 8 8 8 8 8 8 8
5 5 8 5 3 4 5 4 4 3 3 4 1 1 8 9 11 11 10 10 10 13 16 18 17 17 17 17 16 15 14 14 13 12 11 10 9 8 8 7 6 6 6 6 5 6 5 5 5
4 5 7 6 3 4 5 3 1 4 2 4 1 2 7 10 11 10 10 9 10 11 12 16 17 17 16 16 16 15 14 14 14 13 12 10 9 8 7 7 5 4 3 3 3 3 3 3 3
4 4 6 4 2 3 7 4 3 1 3 1 1 4 9 12 11 10 8 7 9 10 10 12 14 16 17 17 16 16 15 15 14 13 13 12 11 10 9 7 6 3 1 0 1 2 4 5 6
4 5 5 4 5 3 3 2 2 4 6 6 4 7 10 11 10 10 10 10 10 11 10 10 11 13 16 16 16 15 14 15 14 14 14 12 9 8 8 9 6 5 4 4 5 6 7 8 7
6 6 4 3 5 5 3 3 3 6 7 7 4 9 11 10 10 11 11 11 11 11 10 10 9 12 12 11 14 13 13 14 14 14 14 10 8 8 8 8 8 8 8 8 6 8 8 6 3
7 6 4 2 2 2 5 5 6 8 8 5 2 6 11 11 12 12 12 11 11 12 11 10 9 10 11 12 11 11 10 11 10 12 12 9 6 5 5 5 5 5 5 3 3 5 6 5 6
9 7 4 2 3 5 6 8 9 10 10 7 3 4 8 11 11 12 12 11 12 12 12 11 10 10 9 9 8 10 9 10 10 10 10 8 5 3 3 3 3 3 2 1 3 5 5 5 5
5 5 6 6 6 5 7 10 9 10 9 8 6 8 9 11 11 11 11 11 12 13 13 11 11 10 10 8 6 7 10 11 11 11 10 8 6 5 3 2 2 2 1 2 3 4 4 4 4
6 8 8 8 8 5 4 10 12 13 9 9 9 10 11 11 11 10 10 11 11 12 13 12 12 11 11 10 9 8 11 11 10 11 12 10 8 6 4 2 2 2 1 2 3 4 4 4 3
7 8 8 8 8 6 5 10 9 6 8 10 10 10 10 11 11 10 10 10 10 11 13 13 12 12 12 9 9 8 10 11 10 11 12 11 9 7 5 2 2 2 0 1 1 1 2 3 4
9 9 10 6 8 7 8 9 10 6 7 10 10 10 10 10 11 11 11 11 11 11 12 12 12 12 12 10 8 8 9 9 10 11 10 10 10 9 6 3 2 1 1 1 1 1 1 3 4
7 8 7 6 6 6 8 11 11 10 9 10 10 10 9 9 10 11 11 11 11 10 11 12 12 11 11 9 7 6 6 6 8 9 10 11 10 8 6 3 2 2 1 0 1 1 2 2 2
8 8 8 6 2 4 9 12 13 11 11 10 9 8 8 7 7 9 10 11 10 10 10 12 12 11 10 9 8 8 7 6 5 7 10 11 9 8 6 3 3 2 2 1 0 1 2 2 2
11 11 11 8 2 3 9 13 14 12 10 8 7 6 6 5 4 6 8 9 10 10 10 11 13 12 11 9 8 7 7 5 5 5 8 10 9 9 7 4 3 3 2 1 1 1 1 2 2
12 12 10 8 6 7 9 10 10 7 7 7 6 5 5 4 4 6 8 9 9 10 11 10 12 12 11 11 8 7 6 5 4 5 5 7 10 9 8 6 4 3 3 2 2 2 1 1 2
12 9 7 7 7 6 5 7 8 6 6 6 6 5 3 2 3 6 8 9 9 9 9 10 11 11 11 11 11 12 8 7 6 6 6 6 9 9 9 7 6 4 3 3 2 2 2 2 1
7 2 4 6 8 9 9 8 8 7 6 5 4 4 4 3 2 4 8 9 9 8 8 9 10 11 11 11 12 12 8 7 6 7 8 7 6 8 9 8 6 4 3 3 3 2 2 2 2
5 3 4 4 5 8 10 9 7 5 5 3 3 4 4 4 3 3 6 8 7 8 7 8 10 10 11 11 12 12 11 9 10 9 9 7 5 5 8 8 6 5 4 4 3 3 3 3 3
8 6 4 5 6 8 7 7 7 4 3 4 3 3 3 4 5 5 7 8 8 9 9 9 10 10 11 11 11 11 11 11 11 10 9 8 6 5 8 7 6 5 5 5 4 3 4 4 3
12 11 7 5 5 3 5 7 6 4 5 6 4 4 4 4 4 6 7 8 9 10 10 10 10 10 11 11 11 10 10 8 7 9 8 8 7 7 8 8 7 6 6 6 5 3 4 4 5
11 12 10 6 7 6 6 7 6 6 6 6 6 5 4 4 5 6 7 8 9 10 11 11 11 10 11 11 10 9 9 8 8 9 8 7 6 6 8 8 7 7 6 6 5 4 5 4 5
8 8 6 6 5 6 8 9 7 8 9 8 7 6 5 5 5 5 6 7 8 9 9 10 10 10 9 10 10 8 8 8 8 8 8 8 8 7 9 8 7 6 6 6 5 5 5 5 5
11 11 8 7 7 5 5 5 4 7 8 8 6 6 6 6 6 5 5 6 7 7 8 9 9 9 9 10 9 9 8 8 8 8 8 8 8 8 9 8 7 7 6 6 5 5 6 6 6
13 14 13 8 7 7 6 5 2 6 7 7 6 5 5 6 6 6 6 6 7 7 8 8 8 8 9 9 9 9 8 8 8 8 8 8 8 8 8 7 7 7 6 6 6 6 6 6 7
Wind_Direction
292 268 251 258 251 237 147 90 102 97 75 57 41 6 43 48 46 104 155 137 124 131 139 146 144 140 134 128 123 119 113 109 103 97 92 88 83 79 76 74 71 69 67 65 64 63 62 61 60
292 279 260 240 249 230 134 137 102 84 87 92 103 280 93 83 93 114 139 123 130 135 142 147 145 142 138 133 129 124 118 113 108 103 98 92 87 82 79 77 74 72 70 68 66 64 63 62 60
272 267 254 239 252 272 122 115 104 98 111 154 142 41 55 88 111 130 134 132 133 137 142 143 147 146 141 137 134 129 124 118 114 108 103 97 91 86 82 80 77 74 71 69 66 64 62 61 59
267 245 244 253 262 36 85 104 111 131 135 208 210 121 88 53 79 113 129 143 138 138 137 143 149 148 145 142 138 135 130 125 120 114 108 101 95 90 86 83 80 76 73 70 66 63 60 57 55
245 254 241 253 247 80 72 89 118 171 154 156 277 109 104 90 100 120 144 150 144 140 138 147 152 152 150 148 143 139 135 131 126 121 116 109 104 98 92 88 83 78 73 69 65 61 57 53 49
253 257 251 231 171 134 121 121 191 223 143 142 212 145 111 131 126 140 149 152 145 138 139 149 156 155 154 152 149 145 143 139 135 130 126 120 115 107 101 95 88 82 76 69 63 59 54 50 44
271 268 273 265 149 160 143 146 213 230 194 143 117 4 122 142 136 144 150 158 143 138 139 149 158 159 158 157 156 153 151 147 144 139 134 129 125 120 114 108 98 86 74 64 56 48 43 38 31
298 285 268 270 199 170 128 137 339 332 350 68 49 329 126 139 141 149 154 154 142 141 145 153 162 163 162 160 161 159 157 154 151 147 144 143 144 142 137 128 118 102 79 59 45 28 2 343 322
281 273 267 265 264 133 124 170 169 22 307 240 153 72 119 134 147 147 148 151 148 153 155 159 164 165 165 164 165 161 161 159 156 156 157 160 169 168 160 140 145 152 162 190 306 300 295 286 274
226 262 278 337 6 27 109 210 192 202 242 239 185 119 126 141 156 163 169 173 168 170 170 164 163 162 164 164 161 166 167 165 170 170 174 185 185 163 152 151 171 197 220 235 247 261 274 275 259
230 250 276 324 16 359 329 271 255 246 247 251 224 154 153 163 174 184 188 184 176 175 175 169 162 160 161 158 163 169 170 172 185 178 179 185 168 148 150 171 189 213 225 232 240 250 259 273 287
253 256 278 310 47 301 286 285 272 254 257 277 316 139 162 177 189 195 198 191 175 174 177 171 164 158 161 161 166 165 167 171 176 174 179 176 159 156 165 186 193 213 222 229 253 268 281 300 305
242 253 251 247 221 250 274 273 271 266 266 263 228 169 188 195 199 200 202 193 174 173 174 175 168 162 162 161 165 167 166 165 166 168 175 165 152 153 166 209 196 226 250 284 298 298 307 313 320
271 266 248 235 230 232 252 265 258 254 255 253 223 210 214 216 210 201 197 192 177 171 172 174 174 167 163 166 168 164 163 166 163 161 170 174 167 168 182 224 211 227 245 276 289 303 321 316 324
278 273 262 230 223 215 254 266 246 241 239 240 234 220 215 218 211 207 195 188 178 170 170 173 176 172 169 171 172 163 165 165 161 166 174 179 180 180 191 214 208 212 231 296 320 332 333 324 322
239 246 249 221 206 186 203 262 275 218 207 229 239 238 219 211 208 201 191 181 177 168 169 173 175 176 174 172 169 163 167 165 163 166 173 180 182 185 191 192 202 200 176 347 342 330 340 333 337
228 235 237 222 196 185 209 260 275 260 229 233 236 240 233 213 204 199 188 176 173 168 166 169 170 176 175 170 165 164 165 161 163 167 170 176 182 187 177 176 182 148 104 45 335 339 358 340 332
224 233 241 235 196 206 234 260 271 270 256 250 246 242 239 223 206 195 182 170 167 168 166 166 168 176 171 166 163 154 155 156 159 163 167 175 179 177 166 163 153 119 110 106 316 328 346 327 322
271 278 276 275 233 222 252 266 272 269 261 256 255 251 246 240 205 179 168 160 159 163 167 168 169 177 171 169 167 164 168 163 162 165 171 170 170 170 160 147 143 127 139 161 43 38 359 336 353
249 263 272 280 275 265 268 273 272 262 253 246 251 260 268 262 222 167 154 155 161 168 174 172 172 177 174 171 169 166 160 162 159 153 159 166 168 164 159 153 152 140 139 113 79 75 28 333 12
234 244 258 279 302 263 266 275 262 252 234 226 221 225 245 238 229 172 162 164 165 174 179 176 173 174 172 165 157 146 134 133 147 160 164 168 167 165 160 160 148 146 147 158 169 144 149 272 309
235 233 248 271 281 279 270 285 273 249 231 214 203 195 198 212 225 178 167 170 174 177 169 167 169 171 172 165 162 161 164 168 175 169 167 170 169 163 162 165 160 153 152 162 177 161 169 170 254
227 202 232 249 263 272 264 264 264 233 230 209 169 145 145 163 204 182 168 168 164 156 155 162 165 173 173 170 167 170 172 174 162 160 163 170 166 163 166 168 164 162 162 167 169 167 182 187 206
184 179 238 246 254 255 236 235 267 230 214 160 123 116 128 153 169 166 150 146 145 143 154 165 170 175 173 173 173 178 178 172 162 162 168 170 167 168 168 169 170 170 167 170 174 183 202 214 222
182 183 211 211 214 236 207 218 246 214 132 122 107 94 107 145 158 169 158 156 154 158 169 176 176 177 176 178 181 184 182 175 172 169 172 170 170 175 179 171 175 174 174 175 179 189 210 216 222
193 198 204 210 222 228 194 223 237 189 143 133 139 132 127 141 159 171 172 169 166 168 176 182 184 182 180 183 187 185 180 176 175 173 171 175 176 177 172 171 174 178 178 180 183 194 213 213 221
193 212 232 273 290 286 243 225 220 191 163 158 152 143 147 156 161 168 173 173 172 174 182 188 187 185 184 185 183 182 178 176 173 168 165 168 165 163 162 166 174 180 180 181 184 204 215 217 224
217 192 198 216 229 243 249 238 226 191 186 173 160 157 159 157 160 168 175 178 178 177 180 185 188 187 185 183 184 182 179 175 166 163 165 163 159 156 160 168 174 179 183 189 194 207 217 222 231
200 207 204 205 226 226 246 246 206 169 160 157 158 157 157 162 170 178 179 176 174 171 173 180 185 183 184 182 179 177 176 170 163 164 166 163 160 160 166 172 176 183 191 195 202 213 218 227 238
205 208 206 207 218 222 247 264 141 133 137 146 160 163 160 163 166 171 173 169 170 174 177 182 185 184 183 178 174 174 172 165 165 168 166 161 161 163 167 170 178 188 194 199 207 220 225 231 240
Height
1515 1516 1518 1520 1520 1520 1516 1511 1508 1511 1513 1516 1518 1517 1518 1522 1527 1538 1536 1535 1535 1536 1537 1539 1541 1543 1544 1546 1547 1548 1548 1549 1549 1549 1549 1549 1549 1549 1549 1549 1549 1549 1549 1548 1548 1548 1547 1547 1547
1516 1517 1520 1519 1520 1522 1518 1509 1511 1513 1516 1519 1520 1519 1519 1524 1528 1532 1534 1535 1535 1536 1537 1539 1541 1543 1544 1546 1547 1548 1549 1549 1550 1550 1550 1550 1550 1550 1550 1550 1550 1550 1550 1549 1549 1549 1549 1548 1548
1517 1518 1519 1516 1514 1514 1513 1507 1511 1514 1518 1519 1520 1520 1522 1526 1529 1531 1533 1535 1536 1536 1537 1539 1541 1543 1544 1546 1547 1548 1549 1550 1550 1551 1551 1551 1551 1551 1551 1551 1551 1551 1551 1551 1550 1550 1550 1550 1549
1518 1519 1517 1515 1513 1508 1506 1508 1511 1515 1518 1519 1519 1520 1524 1528 1529 1531 1532 1534 1536 1537 1537 1539 1541 1543 1544 1546 1547 1548 1549 1550 1551 1551 1551 1552 1552 1552 1552 1552 1552 1552 1552 1552 1552 1551 1551 1551 1551
1519 1518 1517 1515 1510 1506 1506 1508 1512 1513 1516 1518 1519 1520 1524 1527 1528 1530 1532 1534 1535 1537 1537 1539 1541 1543 1544 1546 1547 1548 1549 1550 1551 1552 1552 1552 1552 1553 1553 1553 1553 1553 1553 1553 1553 1553 1552 1552 1552
1519 1515 1518 1516 1509 1507 1508 1511 1513 1513 1515 1517 1519 1519 1524 1526 1527 1530 1532 1534 1536 1536 1537 1539 1541 1542 1544 1546 1547 1548 1549 1550 1551 1552 1552 1553 1553 1553 1553 1553 1554 1554 1554 1554 1554 1553 1553 1553 1553
1519 1516 1516 1509 1509 1509 1508 1511 1513 1513 1514 1516 1518 1519 1523 1525 1527 1529 1531 1534 1536 1536 1536 1538 1540 1542 1543 1545 1546 1548 1549 1550 1551 1552 1553 1553 1554 1554 1554 1554 1554 1554 1554 1554 1554 1554 1554 1554 1554
1517 1515 1512 1509 1509 1509 1508 1511 1513 1514 1515 1516 1518 1519 1522 1524 1526 1528 1531 1533 1535 1536 1536 1537 1539 1540 1542 1544 1546 1547 1549 1550 1551 1552 1553 1553 1554 1554 1554 1555 1555 1555 1555 1555 1555 1555 1554 1554 1554
1517 1519 1516 1508 1507 1507 1508 1512 1514 1515 1516 1517 1518 1519 1521 1522 1524 1527 1529 1532 1533 1534 1536 1536 1537 1539 1541 1543 1545 1546 1548 1549 1550 1552 1553 1553 1554 1554 1555 1555 1555 1555 1555 1555 1555 1555 1555 1554 1554
1516 1519 1513 1506 1505 1506 1508 1511 1513 1515 1515 1516 1517 1517 1518 1520 1522 1524 1526 1528 1530 1532 1534 1535 1537 1538 1540 1542 1543 1545 1547 1548 1550 1551 1552 1553 1554 1555 1555 1556 1556 1556 1555 1555 1555 1555 1555 1554 1554
1512 1512 1509 1507 1508 1509 1510 1511 1512 1513 1514 1514 1514 1515 1516 1518 1520 1521 1523 1525 1527 1529 1532 1534 1535 1537 1539 1540 1542 1544 1545 1547 1549 1550 1552 1553 1554 1555 1555 1555 1555 1555 1555 1555 1555 1555 1554 1554 1554
1510 1508 1508 1508 1509 1511 1511 1511 1512 1511 1511 1512 1512 1512 1514 1515 1517 1518 1520 1522 1524 1526 1528 1531 1533 1535 1537 1538 1540 1542 1544 1546 1548 1549 1551 1552 1553 1554 1555 1555 1555 1555 1555 1555 1555 1554 1554 1554 1553
1508 1507 1507 1508 1510 1510 1511 1511 1510 1509 1509 1509 1509 1510 1511 1512 1514 1515 1517 1520 1521 1522 1525 1527 1530 1532 1534 1536 1538 1540 1542 1544 1546 1548 1550 1551 1552 1553 1554 1554 1554 1554 1555 1554 1554 1553 1553 1552 1551
1505 1505 1505 1506 1507 1509 1509 1508 1508 1504 1505 1506 1506 1506 1508 1509 1510 1512 1514 1516 1517 1518 1521 1524 1526 1528 1531 1533 1536 1538 1540 1542 1544 1546 1548 1549 1550 1551 1552 1553 1553 1553 1553 1553 1552 1552 1551 1550 1549
1505 1506 1505 1503 1504 1505 1508 1507 1502 1500 1502 1502 1502 1502 1503 1504 1506 1507 1509 1511 1513 1515 1517 1519 1522 1525 1527 1530 1533 1535 1537 1540 1541 1543 1545 1547 1548 1549 1550 1551 1551 1552 1551 1551 1551 1550 1549 1548 1547
1504 1507 1508 1500 1501 1502 1509 1509 1497 1496 1497 1497 1498 1498 1498 1499 1500 1502 1504 1507 1509 1511 1513 1515 1518 1521 1524 1526 1529 1532 1534 1537 1539 1541 1543 1545 1546 1547 1548 1549 1549 1550 1549 1549 1549 1548 1547 1546 1545
1505 1508 1505 1499 1496 1498 1503 1503 1495 1493 1493 1493 1493 1493 1493 1494 1495 1497 1499 1501 1504 1507 1509 1511 1514 1517 1520 1523 1526 1529 1532 1534 1536 1538 1540 1542 1544 1545 1546 1547 1547 1547 1547 1547 1546 1545 1544 1543 1542
1504 1502 1499 1497 1493 1495 1499 1497 1492 1490 1489 1488 1487 1487 1488 1488 1489 1491 1494 1496 1499 1502 1505 1507 1510 1513 1517 1520 1523 1526 1528 1531 1533 1535 1538 1539 1541 1542 1544 1544 1545 1545 1545 1545 1544 1543 1542 1541 1539
1495 1497 1497 1493 1489 1493 1496 1493 1488 1485 1484 1482 1482 1482 1483 1483 1485 1486 1488 1491 1494 1497 1500 1502 1505 1508 1512 1515 1518 1521 1524 1527 1530 1532 1535 1537 1538 1540 1541 1542 1542 1542 1542 1542 1542 1541 1540 1539 1537
1495 1498 1498 1492 1488 1492 1493 1489 1482 1478 1477 1477 1477 1478 1479 1479 1481 1482 1484 1486 1489 1492 1495 1497 1500 1503 1507 1510 1513 1517 1521 1524 1527 1529 1532 1534 1535 1537 1538 1539 1539 1540 1540 1540 1539 1539 1538 1537 1535
1493 1497 1497 1495 1491 1489 1492 1490 1479 1473 1471 1471 1472 1473 1475 1476 1477 1478 1480 1482 1484 1487 1490 1493 1495 1499 1503 1507 1511 1514 1517 1520 1523 1525 1528 1530 1532 1533 1535 1536 1536 1537 1537 1537 1537 1536 1535 1534 1534
1493 1488 1491 1494 1499 1499 1493 1501 1481 1472 1469 1468 1468 1470 1471 1472 1474 1474 1476 1478 1480 1483 1486 1488 1491 1495 1499 1503 1506 1508 1511 1514 1517 1521 1524 1526 1528 1530 1531 1532 1533 1534 1534 1534 1534 1533 1533 1532 1531
1485 1485 1489 1492 1498 1501 1494 1498 1483 1468 1469 1466 1465 1466 1468 1469 1470 1471 1472 1474 1477 1479 1482 1484 1487 1491 1495 1498 1501 1505 1508 1511 1515 1518 1520 1523 1525 1526 1528 1529 1530 1531 1531 1531 1531 1530 1530 1529 1528
1482 1487 1490 1493 1499 1506 1491 1494 1483 1469 1464 1462 1462 1464 1466 1467 1468 1469 1470 1472 1473 1476 1478 1481 1484 1487 1490 1494 1497 1501 1504 1507 1510 1513 1515 1518 1520 1522 1524 1525 1526 1527 1527 1528 1527 1527 1526 1525 1525
1482 1493 1505 1507 1509 1500 1480 1483 1475 1460 1457 1458 1461 1463 1464 1465 1465 1466 1467 1468 1470 1471 1474 1477 1480 1483 1486 1490 1494 1497 1500 1503 1506 1509 1511 1514 1516 1518 1520 1521 1522 1523 1524 1524 1524 1523 1522 1522 1521
1478 1484 1497 1502 1498 1484 1477 1479 1465 1454 1454 1456 1459 1461 1462 1463 1463 1464 1465 1466 1467 1468 1470 1473 1476 1479 1483 1486 1490 1493 1496 1499 1502 1505 1507 1509 1511 1513 1515 1517 1518 1519 1519 1520 1519 1519 1518 1517 1516
1474 1478 1476 1484 1482 1487 1477 1464 1456 1451 1452 1454 1457 1459 1460 1461 1461 1461 1462 1463 1464 1465 1467 1470 1473 1476 1479 1482 1486 1489 1492 1495 1498 1501 1503 1505 1507 1509 1511 1513 1514 1515 1515 1515 1515 1514 1514 1513 1512
1464 1469 1478 1485 1492 1495 1477 1468 1462 1454 1452 1453 1455 1456 1458 1459 1459 1459 1460 1460 1461 1462 1464 1467 1469 1472 1475 1478 1481 1484 1488 1491 1494 1496 1499 1501 1503 1505 1507 1508 1509 1510 1510 1510 1510 1510 1509 1508 1507
1464 1467 1468 1474 1475 1482 1482 1468 1442 1443 1445 1449 1451 1453 1455 1456 1457 1457 1457 1458 1459 1460 1461 1463 1466 1468 1471 1474 1477 1480 1483 1486 1489 1492 1494 1496 1499 1500 1502 1503 1505 1505 1505 1505 1505 1504 1504 1502 1501
1453 1457 1462 1473 1471 1468 1473 1464 1437 1438 1441 1444 1448 1450 1452 1453 1454 1455 1455 1455 1456 1457 1458 1460 1462 1464 1466 1469 1472 1475 1478 1481 1484 1487 1489 1492 1494 1496 1497 1499 1500 1500 1500 1500 1500 1499 1498 1497 1495